カタログに戻る

STARLINK-33622

運用中通信VLEO
NORAD 63066·PAYLOAD·🇺🇸 United States

打ち上げ Feb 21, 2025 から Cape Canaveral Space Force Station

Loading…

次のパス (今後24時間)

TLE

最新Source: CelesTrak SupGP

元期: Sep 15, 2026, 02:26 UTC

1 63066C 25035Q   26258.10187500  .00012596  00000+0  45633-3 0  2585
2 63066  43.0022 157.1133 0001336 281.4708 341.1060 15.27564980    11

AllMySatでSTARLINK-33622をリアルタイム追跡

Download on the App Store